TimeCDT,TemperatureF,Dew PointF,Humidity,Sea Level PressureIn,VisibilityMPH,Wind Direction,Wind SpeedMPH,Gust SpeedMPH,PrecipitationIn,Events,Conditions,WindDirDegrees,DateUTC
12:58 AM,83.5,68.7,61,30.04,10.0,SSW,11.5,-,N/A,,Partly Cloudy,200,2013-07-31 05:58:00
1:58 AM,82.2,68.5,63,30.04,10.0,SSW,10.4,-,N/A,,Clear,200,2013-07-31 06:58:00
2:58 AM,81.1,68.7,66,30.04,10.0,SSW,8.1,-,N/A,,Partly Cloudy,200,2013-07-31 07:58:00
3:58 AM,79.7,68.9,69,30.02,10.0,SSW,6.9,-,N/A,,Partly Cloudy,200,2013-07-31 08:58:00
4:58 AM,79.3,69.6,72,30.02,10.0,SSW,8.1,-,N/A,,Mostly Cloudy,210,2013-07-31 09:58:00
5:58 AM,78.3,70.0,76,30.04,10.0,SSW,5.8,-,N/A,,Partly Cloudy,210,2013-07-31 10:58:00
6:58 AM,77.4,70.9,80,30.06,10.0,SSW,5.8,-,N/A,,Clear,210,2013-07-31 11:58:00
7:58 AM,79.2,71.6,78,30.08,10.0,SW,8.1,-,N/A,,Scattered Clouds,220,2013-07-31 12:58:00
8:58 AM,81.9,71.1,70,30.09,10.0,SW,8.1,-,N/A,,Clear,230,2013-07-31 13:58:00
9:58 AM,82.6,70.7,67,30.09,10.0,WSW,8.1,-,N/A,,Scattered Clouds,240,2013-07-31 14:58:00
10:58 AM,84.2,69.6,61,30.09,10.0,SW,4.6,-,N/A,,Clear,220,2013-07-31 15:58:00
11:58 AM,87.3,69.6,56,30.09,10.0,South,6.9,-,N/A,,Clear,190,2013-07-31 16:58:00
12:58 PM,90.3,68.0,48,30.06,10.0,South,9.2,-,N/A,,Clear,190,2013-07-31 17:58:00
1:58 PM,92.1,67.1,44,30.02,10.0,SW,8.1,-,N/A,,Clear,220,2013-07-31 18:58:00
2:58 PM,93.9,67.5,42,30.01,10.0,South,10.4,-,N/A,,Clear,180,2013-07-31 19:58:00
3:58 PM,94.8,65.1,37,29.99,10.0,South,9.2,-,N/A,,Clear,180,2013-07-31 20:58:00
4:58 PM,96.1,64.0,35,29.96,10.0,SSE,9.2,-,N/A,,Clear,160,2013-07-31 21:58:00
5:58 PM,95.4,64.9,37,29.94,10.0,South,11.5,-,N/A,,Clear,170,2013-07-31 22:58:00
6:58 PM,93.2,67.6,43,29.94,10.0,SE,11.5,-,N/A,,Clear,140,2013-07-31 23:58:00
7:58 PM,87.6,70.0,56,29.94,10.0,SE,5.8,-,N/A,,Clear,140,2013-08-01 00:58:00
8:58 PM,83.7,70.9,65,29.96,10.0,SSE,4.6,-,N/A,,Partly Cloudy,150,2013-08-01 01:58:00
9:58 PM,82.9,70.9,67,29.98,10.0,SE,3.5,-,N/A,,Clear,130,2013-08-01 02:58:00
10:58 PM,80.1,71.2,74,29.98,10.0,SE,3.5,-,N/A,,Clear,130,2013-08-01 03:58:00
11:58 PM,79.2,71.6,78,29.98,10.0,SSE,4.6,-,N/A,,Clear,150,2013-08-01 04:58:00